Terminal Aerodrome Forecast
Issued by NWS

Home | Current Version | Previous Version | Text Only | Print | Product List | Glossary On
Versions: 1 2 3 4 5 6 7 8 9 10 11 12 13 14 15 16 17 18 19
605
FTUS46 KHNX 141839 AAA
TAFVIS
TAF AMD
KVIS 141839Z 1419/1518 VRB03KT 1/2SM FG BKN002
     FM142000 VRB04KT 1 1/2SM BR BKN005
     FM142100 VRB04KT 4SM HZ BKN200
     FM150600 VRB03KT 2SM BR SKC
      TEMPO 1508/1512 1/2SM FG VV002
     FM151200 00000KT 1/4SM FG VV001
     FM151700 VRB03KT 1 1/2SM BR SCT200=

USA.gov is the U.S. government's official web portal to all federal, state and local government web resources and services.